Middlesboro, KY

1:32 AM EST on January 19, 2017 (GMT -0500)
Middlesboro

Weather History for K1A6 - September, 2012

Change the Weather History Date:

Tuesday, September 4, 2012

  Actual Average (KLOZ) Record (KLOZ)
Temperature  
Mean Temperature 81 °F -  
Max Temperature 89 °F 81 °F 94 °F (2007)
Min Temperature 73 °F 62 °F 49 °F (1997)
Cooling Degree Days 16    
Growing Degree Days 31 (Base 50)    
Moisture  
Dew Point 74 °F    
Average Humidity 86    
Maximum Humidity 100    
Minimum Humidity 59    
Precipitation  
Precipitation 0.00 in - - ()
Sea Level Pressure  
Sea Level Pressure 29.93 in    
Wind  
Wind Speed 1 mph (South)    
Max Wind Speed 7 mph    
Max Gust Speed -    
Visibility 8 miles    
Events Rain    
Averages and records for this station are not official NWS values.
T = Trace of Precipitation, MM = Missing Value Source: NWS Daily Summary

Daily Weather History Graph

Daily Weather History Graph

Search for Another Location

Airport or City:

Trip Planner

Search our weather history database for the weather conditions in past years. The results will help you decide how hot, cold, wet, or windy it might be!

Date:

Astronomy

Sep. 04, 2012 Rise Set
Actual Time 6:08 AM CDT 6:58 PM CDT
Civil Twilight 5:42 AM CDT 7:24 PM CDT
Nautical Twilight 5:11 AM CDT 7:55 PM CDT
Astronomical Twilight 4:39 AM CDT 8:27 PM CDT
Moon 8:59 PM CDT (9/4) 10:06 AM CDT (9/4)
Length of Visible Light 13h 41m
Length of Day
12h 49m
Waning Gibbous, 83% of the Moon is Illuminated
Sep 4
Waning Gibbous
Sep 8
Last Quarter
Sep 15
New
Sep 22
First Quarter
Sep 29
Full

Hourly Weather History & Observations

Time (CDT) Temp. Heat Index Dew Point Humidity Pressure Visibility Wind Dir Wind Speed Gust Speed Precip Events Conditions
12:15 AM 73.4 °F - 71.6 °F 94% 29.95 in 7.0 mi Calm Calm - N/A   Overcast
12:35 AM 73.4 °F - 71.6 °F 94% 29.95 in 7.0 mi Calm Calm - N/A   Overcast
12:55 AM 73.4 °F - 71.6 °F 94% 29.95 in 7.0 mi Calm Calm - N/A   Overcast
1:15 AM 73.4 °F - 73.4 °F 100% 29.94 in 10.0 mi Calm Calm - N/A   Overcast
1:35 AM 73.4 °F - 73.4 °F 100% 29.93 in 7.0 mi Calm Calm - N/A   Overcast
1:55 AM 73.4 °F - 73.4 °F 100% 29.93 in 7.0 mi Calm Calm - N/A   Overcast
2:15 AM 73.4 °F - 73.4 °F 100% 29.93 in 5.0 mi Calm Calm - N/A Rain Light Rain
2:35 AM 73.4 °F - 71.6 °F 94% 29.93 in 4.0 mi Calm Calm - N/A Rain Heavy Rain
2:55 AM 73.4 °F - 71.6 °F 94% 29.94 in 3.0 mi Calm Calm - N/A Rain Light Rain
3:15 AM 73.4 °F - 71.6 °F 94% 29.93 in 4.0 mi Calm Calm - N/A   Heavy Drizzle
3:35 AM 73.4 °F - 71.6 °F 94% 29.93 in 5.0 mi Calm Calm - N/A Rain Rain
3:55 AM 73.4 °F - 71.6 °F 94% 29.93 in 5.0 mi Calm Calm - N/A   Overcast
4:15 AM 73.4 °F - 71.6 °F 94% 29.93 in 7.0 mi Calm Calm - N/A   Overcast
4:55 AM 73.4 °F - 71.6 °F 94% 29.94 in 5.0 mi Calm Calm - N/A   Overcast
5:15 AM 73.4 °F - 71.6 °F 94% 29.94 in 7.0 mi Calm Calm - N/A   Overcast
5:35 AM 73.4 °F - 71.6 °F 94% 29.94 in 7.0 mi Calm Calm - N/A   Overcast
5:55 AM 73.4 °F - 71.6 °F 94% 29.94 in 7.0 mi Calm Calm - N/A   Overcast
6:15 AM 73.4 °F - 71.6 °F 94% 29.94 in 4.0 mi Calm Calm - N/A   Drizzle
6:35 AM 73.4 °F - 71.6 °F 94% 29.95 in 4.0 mi Calm Calm - N/A   Overcast
6:55 AM 73.4 °F - 71.6 °F 94% 29.95 in 5.0 mi Calm Calm - N/A   Overcast
7:15 AM 73.4 °F - 73.4 °F 100% 29.95 in 4.0 mi Calm Calm - N/A   Overcast
7:35 AM 73.4 °F - 73.4 °F 100% 29.96 in 7.0 mi Calm Calm - N/A   Overcast
7:55 AM 73.4 °F - 73.4 °F 100% 29.95 in 7.0 mi Calm Calm - N/A   Overcast
8:15 AM 75.2 °F - 75.2 °F 100% 29.94 in 10.0 mi Calm Calm - N/A   Overcast
8:35 AM 77.0 °F - 75.2 °F 94% 29.94 in 10.0 mi South 3.5 mph - N/A   Mostly Cloudy
8:55 AM 78.8 °F - 75.2 °F 89% 29.94 in 10.0 mi South 3.5 mph - N/A   Mostly Cloudy
9:15 AM 80.6 °F 85.4 °F 73.4 °F 79% 29.95 in 10.0 mi Calm Calm - N/A   Overcast
9:35 AM 80.6 °F 85.4 °F 73.4 °F 79% 29.95 in 10.0 mi Calm Calm - N/A   Overcast
9:55 AM 80.6 °F 85.4 °F 73.4 °F 79% 29.95 in 10.0 mi East 3.5 mph - N/A   Overcast
10:15 AM 84.2 °F 90.9 °F 73.4 °F 70% 29.95 in 10.0 mi SE 4.6 mph - N/A   Overcast
10:35 AM 84.2 °F 90.9 °F 73.4 °F 70% 29.95 in 10.0 mi Calm Calm - N/A   Mostly Cloudy
10:55 AM 84.2 °F 90.9 °F 73.4 °F 70% - 10.0 mi Calm Calm - N/A   Mostly Cloudy
11:15 AM 84.2 °F 90.9 °F 73.4 °F 70% 2.99 in 10.0 mi Calm Calm - N/A   Overcast
11:35 AM 84.2 °F 90.9 °F 73.4 °F 70% 29.94 in 10.0 mi South 3.5 mph - N/A   Overcast
11:55 AM 84.2 °F 90.9 °F 73.4 °F 70% 29.94 in 10.0 mi Calm Calm - N/A   Overcast
12:15 PM 87.8 °F 95.6 °F 73.4 °F 62% 29.93 in 10.0 mi South 5.8 mph - N/A   Overcast
12:35 PM 84.2 °F 90.9 °F 73.4 °F 70% 29.93 in 10.0 mi South 3.5 mph - N/A   Mostly Cloudy
12:55 PM 84.2 °F 90.9 °F 73.4 °F 70% 29.93 in 10.0 mi Calm Calm - N/A   Scattered Clouds
1:15 PM 86.0 °F 93.4 °F 73.4 °F 66% 29.92 in 10.0 mi SSE 3.5 mph - N/A   Unknown
1:35 PM 86.0 °F 93.4 °F 73.4 °F 66% 29.92 in 10.0 mi SSE 5.8 mph - N/A   Mostly Cloudy
1:55 PM 84.2 °F 92.3 °F 75.2 °F 74% 29.92 in 10.0 mi WNW 5.8 mph - N/A   Mostly Cloudy
2:15 PM 84.2 °F 92.3 °F 75.2 °F 74% 29.91 in 10.0 mi Calm Calm - N/A   Overcast
2:35 PM 86.0 °F 93.4 °F 73.4 °F 66% 29.90 in 1.0 mi South 6.9 mph - N/A   Mostly Cloudy
2:55 PM 86.0 °F 93.4 °F 73.4 °F 66% 29.89 in 10.0 mi South 4.6 mph - N/A   Overcast
3:15 PM 89.6 °F 98.2 °F 73.4 °F 59% 29.89 in 10.0 mi Calm Calm - N/A   Scattered Clouds
3:35 PM 87.8 °F 95.6 °F 73.4 °F 62% 29.89 in 10.0 mi East 4.6 mph - N/A   Scattered Clouds
3:55 PM 86.0 °F 93.4 °F 73.4 °F 66% 29.89 in 10.0 mi South 3.5 mph - N/A   Mostly Cloudy
4:15 PM 84.2 °F 92.3 °F 75.2 °F 74% 29.89 in 10.0 mi Calm Calm - N/A   Overcast
4:35 PM 84.2 °F 92.3 °F 75.2 °F 74% 29.89 in 10.0 mi Calm Calm - N/A   Overcast
5:15 PM 84.2 °F 92.3 °F 75.2 °F 74% 29.89 in 10.0 mi NNW 3.5 mph - N/A   Scattered Clouds
5:35 PM 84.2 °F 94.1 °F 77.0 °F 79% 29.89 in 10.0 mi Calm Calm - N/A   Scattered Clouds
5:55 PM 82.4 °F 90.9 °F 77.0 °F 84% 29.90 in 10.0 mi Calm Calm - N/A   Mostly Cloudy
6:15 PM 82.4 °F 90.9 °F 77.0 °F 84% 29.90 in 10.0 mi Calm Calm - N/A   Overcast
6:35 PM 82.4 °F 89.5 °F 75.2 °F 79% 29.90 in 10.0 mi Calm Calm - N/A   Mostly Cloudy
6:55 PM 82.4 °F 89.5 °F 75.2 °F 79% 29.90 in 10.0 mi South 5.8 mph - N/A   Mostly Cloudy
7:15 PM 80.6 °F 86.2 °F 75.2 °F 84% 29.90 in 10.0 mi Calm Calm - N/A   Scattered Clouds
7:35 PM 80.6 °F 87.1 °F 77.0 °F 89% 29.91 in 10.0 mi North 3.5 mph - N/A   Mostly Cloudy
7:55 PM 78.8 °F - 77.0 °F 94% 29.92 in 10.0 mi Calm Calm - N/A   Mostly Cloudy
8:15 PM 78.8 °F - 75.2 °F 89% 29.92 in 10.0 mi Calm Calm - N/A   Mostly Cloudy
8:35 PM 78.8 °F - 77.0 °F 94% 29.93 in 10.0 mi Calm Calm - N/A   Scattered Clouds
8:55 PM 77.0 °F - 75.2 °F 94% 29.93 in 10.0 mi Calm Calm - N/A   Clear
9:15 PM 75.2 °F - 75.2 °F 100% 29.93 in 10.0 mi Calm Calm - N/A   Clear
9:35 PM 75.2 °F - 75.2 °F 100% 29.94 in 10.0 mi Calm Calm - N/A   Scattered Clouds
9:55 PM 75.2 °F - 75.2 °F 100% 29.93 in 10.0 mi Calm Calm - N/A   Mostly Cloudy
10:15 PM 75.2 °F - 75.2 °F 100% 29.93 in 10.0 mi Calm Calm - N/A   Overcast
10:35 PM 75.2 °F - 75.2 °F 100% 29.93 in 10.0 mi Calm Calm - N/A   Mostly Cloudy
10:55 PM 75.2 °F - 75.2 °F 100% 29.93 in 10.0 mi Calm Calm - N/A   Scattered Clouds
11:15 PM 75.2 °F - 73.4 °F 94% 29.93 in 10.0 mi Calm Calm - N/A   Mostly Cloudy
11:35 PM 75.2 °F - 73.4 °F 94% 29.92 in 10.0 mi Calm Calm - N/A   Overcast
11:55 PM 75.2 °F - 73.4 °F 94% 29.92 in 10.0 mi Calm Calm - N/A   Overcast